This is the latest recevied weather packets stored in our database for station/object N8SDR. If no packets are shown the sender has not sent any weather packets the latest 10 day(s).
| Time | Temp. | Humidity | Pressure | Rain* | Wind** | Luminosity | Snow |
|---|---|---|---|---|---|---|---|
| 1778076249 | 10.56° C | 79% | 1008.9 hPa | 0 mm | - | 311 W/m² | - |
| 1778075946 | 10.56° C | 80% | 1008.6 hPa | 0 mm | - | 530 W/m² | - |
| 1778075643 | 10° C | 82% | 1008.5 hPa | 0 mm | - | 379 W/m² | - |
| 1778075338 | 10° C | 82% | 1008.6 hPa | 0 mm | - | 260 W/m² | - |
| 1778075035 | 10° C | 86% | 1008.6 hPa | 0 mm | - | 212 W/m² | - |
| 1778074732 | 9.44° C | 86% | 1008.7 hPa | 0 mm | - | 245 W/m² | - |
| 1778074428 | 9.44° C | 87% | 1009 hPa | 0 mm | - | 272 W/m² | - |
| 1778074125 | 9.44° C | 88% | 1008.9 hPa | 0 mm | - | 235 W/m² | - |
| 1778073822 | 8.89° C | 88% | 1008.8 hPa | 0 mm | - | 136 W/m² | - |
| 1778073521 | 9.44° C | 88% | 1008.8 hPa | 0 mm | - | 130 W/m² | - |
| 1778073216 | 9.44° C | 89% | 1008.5 hPa | 0 mm | - | 293 W/m² | - |
| 1778072914 | 8.89° C | 88% | 1008.5 hPa | 0 mm | - | 225 W/m² | - |
| 1778072610 | 8.89° C | 88% | 1008.5 hPa | 0 mm | - | 135 W/m² | - |
| 1778072308 | 8.89° C | 88% | 1008.6 hPa | 0 mm | - | 85 W/m² | - |
| 1778072006 | 8.89° C | 89% | 1008.4 hPa | 0 mm | - | 113 W/m² | - |
| 1778071705 | 8.89° C | 90% | 1008.6 hPa | 0 mm | - | 121 W/m² | - |
| 1778071401 | 8.89° C | 90% | 1008.3 hPa | 0 mm | - | 117 W/m² | - |
| 1778071099 | 8.89° C | 90% | 1008.5 hPa | 0 mm | - | 108 W/m² | - |
| 1778070797 | 8.33° C | 91% | 1008.2 hPa | 0 mm | - | 163 W/m² | - |
| 1778070494 | 8.33° C | 91% | 1008.3 hPa | 0 mm | - | 138 W/m² | - |
| 1778070191 | 8.33° C | 92% | 1007.7 hPa | 0 mm | - | 138 W/m² | - |
| 1778069889 | 8.33° C | 92% | 1007.9 hPa | 0 mm | - | 123 W/m² | - |
| 1778069585 | 7.78° C | 93% | 1007.7 hPa | 0 mm | - | 127 W/m² | - |
| 1778069283 | 7.78° C | 93% | 1007.9 hPa | 0 mm | - | 95 W/m² | - |
| 1778068981 | 7.78° C | 94% | 1007.7 hPa | 0 mm | - | 75 W/m² | - |
* Rain latest hour (hover to see other rain measurements)
** Current wind speed in m/s (hover to see current wind gust speed)